Regional Weather Roundup
Issued by NWS

Home | Current Version | Previous Version | Text Only | Print | Product List | Glossary Off
Versions: 1 2 3 4 5 6 7 8 9 10 11 12 13 14 15 16 17 18 19 20 21 22 23 24 25 26 27 28 29 30 31 32 33 34 35 36 37 38 39 40 41 42 43 44 45 46 47 48 49 50

000
ASUS45 KPSR 080300
RWRAZ

ARIZONA HOURLY REGIONAL WEATHER ROUNDUP
NATIONAL WEATHER SERVICE PHOENIX AZ
800 PM MST TUE JUL 07 2015

NOTE: FAIR INDICATES FEW OR NO CLOUDS BELOW 12,000 FEET WITH NO
SIGNIFICANT WEATHER AND/OR OBSTRUCTIONS TO VISIBILITY.

AZZ001>003-036-080400-
NORTHWEST ARIZONA

CITY           SKY/WX    TMP DP  RH WIND       PRES   REMARKS
KINGMAN        CLEAR     89  42  19 S9        29.90R
$$

AZZ004>008-015-016-018-080400-
NORTH CENTRAL ARIZONA

CITY           SKY/WX    TMP DP  RH WIND       PRES   REMARKS
GRAND CANYON   MOCLDY    69  46  43 SW7       30.16S
WILLIAMS       MOCLDY    64  52  63 S5        30.26R
PRESCOTT       CLOUDY    69  57  65 CALM      30.08F THUNDER
FLAGSTAFF      NOT AVBL
PAYSON         CLEAR     77  45  31 N5        30.09R
PAGE           CLEAR     81  50  33 NE5       29.96S
$$

AZZ009>014-017-080400-
NORTHEAST ARIZONA

CITY           SKY/WX    TMP DP  RH WIND       PRES   REMARKS
WINSLOW        NOT AVBL
SAINT JOHNS    PTCLDY    68  49  50 W6        30.11S
SHOW LOW       CLEAR     66  45  45 E3        30.19S
$$

AZZ023-080400-
GREATER PHOENIX AREA

CITY           SKY/WX    TMP DP  RH WIND       PRES   REMARKS
PHOENIX        PTCLDY   104  44  13 NW10      29.70S
GLENDALE       PTCLDY   102  48  16 S5        29.72S
LUKE AFB       CLEAR    102  46  15 S7        29.69S
DEER VALLEY    CLEAR     99  45  15 SW7       29.73S
SCOTTSDALE     CLEAR    100  43  14 SW5       29.75S
MESA-FALCON    PTCLDY   100  50  18 W7        29.74R
CHANDLER       PTCLDY   102  50  17 W8        29.72S
$$

AZZ027-028-080400-
SOUTHWEST MARICOPA COUNTY AND PINAL COUNTY

CITY           SKY/WX    TMP DP  RH WIND       PRES   REMARKS
CASA GRANDE    PTCLDY   100  52  19 CALM      29.74S
$$

AZZ503-504-507>509-080400-
SOUTHEAST ARIZONA

CITY           SKY/WX    TMP DP  RH WIND       PRES   REMARKS
TUCSON         PTCLDY    96  48  19 NW8       29.86S
DAVIS-MONTHAN  MOCLDY    94  52  24 NW6       29.85S
RYAN FIELD     CLEAR     97  50  20 W9        29.85R
NOGALES        PTCLDY    86  55  34 SW6       29.98R
SIERRA VISTA   CLEAR     76  61  58 SW8       30.05R
SAFFORD        CLEAR     85  55  35 N7        29.87S
$$

AZZ020-021-025-026-031-080400-
SOUTHWEST ARIZONA

CITY           SKY/WX    TMP DP  RH WIND       PRES   REMARKS
YUMA           NOT AVBL
$$

CAZ031-033-041-043-047-048-061-080400-
SOUTHERN CALIFORNIA

CITY           SKY/WX    TMP DP  RH WIND       PRES   REMARKS
DOWNTOWN L.A.  CLEAR     68  60  75 CALM      29.87S
L.A. AIRPORT   PTCLDY    66  61  84 SW9       29.88S
SAN DIEGO      CLOUDY    68  59  73 NW6       29.92R
BURBANK        CLEAR     70  59  68 S7        29.86S
ONTARIO        CLEAR     72  59  63 SW13      29.87R
RIVERSIDE      CLEAR     73  59  61 W9        29.87R
PALM SPRINGS   CLEAR     95  55  26 NW18G30   29.68S
EL CENTRO NAS  PTCLDY    97  37  12 W21       29.65R
IMPERIAL       CLEAR     95  43  16 W14       29.63R
BLYTHE         CLEAR    104  49  15 S12       29.64R HX 101
$$

NVZ020-UTZ003-080400-
SOUTHERN NEVADA-UTAH

CITY           SKY/WX    TMP DP  RH WIND       PRES   REMARKS
LAS VEGAS      NOT AVBL
SALT LAKE CITY MOCLDY    78  52  40 E12       29.94S
$$

NMZ009-TXZ055-080400-
NEW MEXICO-WEST TEXAS

CITY           SKY/WX    TMP DP  RH WIND       PRES   REMARKS
ALBUQUERQUE    MOCLDY    70  56  61 NE23      30.11R
EL PASO        MOCLDY    73  61  65 NE10      30.02F
$$


........................KEY........................
SKY/WX - SKY CONDITION/WEATHER
TMP    - TEMPERATURE IN FAHRENHEIT
DP     - DEW POINT IN FAHRENHEIT
RH     - RELATIVE HUMIDITY IN PERCENT
WIND   - DIRECTION AND SPEED IN MILES PER HOUR (MPH)
VRB    - VARIABLE WIND DIRECTION
PRES   - MEAN SEA LEVEL PRESSURE IN INCHES OF MERCURY
         F - FALLING PRESSURE   R - RISING PRESSURE
         S - STEADY PRESSURE
VSB    - VISIBILITY IN MILES
HX     - HEAT INDEX IN FAHRENHEIT
WCI    - WIND CHILL INDEX IN FAHRENHEIT
TC     - TEMPERATURE IN CELSIUS WHICH IS ALSO KNOWN AS
         TEMPERATURE IN CENTIGRADE
AFB    - AIR FORCE BASE
         LUKE AFB IS LUKE AIR FORCE BASE
         DAVIS-MONTHAN IS DAVIS-MONTHAN AIR FORCE BASE
NAS    - NAVAL AIR STATION
         EL CENTRO NAS IS EL CENTRO NAVAL AIR STATION
N/A    - NOT AVAILABLE




USA.gov is the U.S. government's official web portal to all federal, state and local government web resources and services.